[[{"header":{"parameterUnit":"m.s-1","parameterCategory":1,"la1":30.2991,"la2":30.254,"lo1":-89.0895,"lo2":-89.0444,"dy":0.0017,"dx":0.0017,"nx":28,"ny":28,"refTime":"2023-08-10T21:00:00:Z","depth":0,"parameterNumber":2,"parameterNumberName":"U-component_of_WINDS"},"data":[0,0,0,0,0,0,0,0,0,0,0,0,0,0,0,0,0,0,0,0,0,0,0,0,0,0,0,0,0,0,0,0,0,0,0,0,0,0,0,0,0,0,0,0,0,0,0,0,0,0,0,0,0,0,0,0,0,0,5.6984,5.6985,0,5.7076,5.7077,5.7078,5.697,5.6966,5.6962,5.6958,5.7053,5.7059,5.7065,0,0,0,0,0,0,0,0,0,0,0,0,0,5.6712,5.6718,5.6984,5.6985,5.6986,5.7076,5.7077,5.7078,5.697,5.6966,5.6961,5.6956,5.705,5.7058,5.7065,0,0,0,0,0,0,0,0,0,0,0,0,0,5.682,5.672,5.6984,5.6943,5.694,5.7076,5.7077,5.7079,5.6972,5.6965,5.6959,5.6954,5.7048,5.7057,5.7066,5.7246,0,0,5.7095,5.7099,0,0,0,0,0,0,0,0,5.6814,5.683,5.6948,5.6946,5.6943,5.7005,5.7016,5.7135,5.6973,5.696,5.6958,5.6951,5.7042,5.7051,5.7082,5.725,5.7255,5.7096,5.7102,5.7106,5.7109,0,0,0,0,0,0,0,5.6807,5.6825,5.702,5.695,5.6947,5.6919,5.6928,5.7038,5.7034,5.696,5.6953,5.6965,5.7039,5.7073,5.7083,5.7256,5.7096,5.7104,5.711,5.7114,5.7572,5.7578,0,0,0,0,0,0,5.6804,5.682,5.7017,5.7023,5.6862,5.6929,5.6939,5.6991,5.7032,5.7032,5.697,5.696,5.706,5.7072,5.7086,5.7295,5.7106,5.7115,5.712,5.7565,5.7573,5.758,0,0,0,0,0,0,5.6799,5.6823,5.7013,5.6919,5.6942,5.694,5.7,5.6996,5.703,5.704,5.7038,5.7006,5.7056,5.7073,5.7206,5.7297,5.7119,5.7128,5.7558,5.7568,5.7577,5.7718,0,0,0,0,0,0,5.6791,5.6821,5.689,5.6922,5.6947,5.7133,5.7006,5.7003,5.7047,5.7034,5.7072,5.7073,5.7052,5.7192,5.7215,5.7307,5.7135,5.7549,5.7562,5.7574,5.7705,5.7731,5.7754,0,0,0,0,0,5.6782,5.6927,5.6894,5.6919,5.7033,5.7138,5.7153,5.7126,5.7055,5.7123,5.7128,5.7072,5.7284,5.7207,5.7232,5.7328,5.7543,5.7558,5.7573,5.7694,5.7726,5.7753,0,0,0,0,0,0,5.6907,5.6931,5.6894,5.7055,5.7095,5.712,5.7205,5.7161,5.7223,5.7209,5.7173,5.7182,5.7323,5.7339,5.7253,5.7501,5.7402,5.7422,5.7486,5.7516,5.754,5.7532,5.7143,0,0,0,0,0,5.6954,5.7038,5.7053,5.7193,5.7215,5.7207,5.7252,5.7228,5.7268,5.7285,5.73,5.7342,5.7417,5.7468,5.7539,5.7707,5.7712,5.7785,5.781,5.783,5.7847,5.7933,5.7964,5.7628,5.7628,5.7628,0,0,5.705,5.7073,5.7129,5.7219,5.7247,5.7333,5.7223,5.732,5.7382,5.73,5.7425,5.7438,5.7482,5.7632,5.77,5.765,5.7941,5.7848,5.7864,5.787,5.7951,5.7983,5.8011,5.7638,5.7636,5.7635,0,0,5.7269,5.7297,5.7414,5.7444,5.7488,5.7482,5.751,5.7541,5.7546,5.7672,5.761,5.7685,5.7817,5.7849,5.7883,5.8112,5.806,5.8136,5.8262,5.8346,5.8373,5.8396,5.8474,5.8503,5.8153,5.8154,5.8154,0,5.7383,5.7511,5.748,5.758,5.762,5.7549,5.7666,5.7697,5.7763,5.7791,5.7735,5.7896,5.7921,5.8076,5.8132,5.8163,5.8192,5.813,5.8372,5.8395,5.8416,5.849,5.8519,5.8162,5.8161,5.816,5.816,0,5.7647,5.7737,5.7826,5.7889,5.794,5.8048,5.8032,5.8087,5.8058,5.8057,5.8183,5.821,5.8283,5.8319,5.8292,5.847,5.8437,5.8377,5.8276,5.8457,5.8525,5.8554,5.8175,5.8171,5.8169,5.8167,0,0,5.7947,5.799,5.8023,5.8049,5.8092,5.816,5.8265,5.8335,5.8381,5.8428,5.8513,5.8625,5.8569,5.8607,5.8584,5.8658,5.8833,5.8589,5.8589,5.863,5.9025,5.9067,5.9101,5.88,5.8805,5.881,5.902,0,5.8164,5.8344,5.8317,5.849,5.857,5.8503,5.8593,5.8628,5.863,5.8697,5.8699,5.8777,5.8699,5.8721,5.8793,5.8797,5.8911,5.8782,5.8876,5.888,5.8864,5.9137,5.9183,5.938,5.9047,5.9052,5.9055,0,5.844,5.8495,5.8676,5.8703,5.8735,5.8817,5.8877,5.8944,5.8981,5.8977,5.9019,5.8981,5.9083,5.8982,5.912,5.9033,5.907,5.9078,5.9084,5.909,5.8976,5.9147,5.9443,5.9471,5.9098,5.9094,5.9091,0,5.8636,5.8756,5.8879,5.8904,5.8939,5.8997,5.9015,5.9046,5.9089,5.9142,5.9169,5.9234,5.9269,5.932,5.9299,5.9228,5.9441,5.9339,5.9438,5.9438,5.9483,5.948,5.9786,5.9513,5.9513,5.9512,5.9512,0,5.8879,5.8991,5.8966,5.9042,5.9164,5.9133,5.9255,5.9264,5.9292,5.9367,5.9314,5.9384,5.9355,5.9423,5.9408,5.9523,5.954,5.9538,5.9532,5.9541,5.9541,5.9562,5.9547,5.952,5.9518,5.9517,5.9516,0,5.9118,5.9106,5.9234,5.9257,5.9265,5.9354,5.9372,5.9442,5.9438,5.9533,5.9553,5.9548,5.9626,5.9611,5.9697,5.9687,5.9829,5.9809,5.9816,5.981,5.9908,5.9898,6.0237,6.0278,5.9982,5.9985,5.9987,0,5.9271,5.9356,5.9386,5.9432,5.9453,5.9528,5.957,5.9543,5.9589,5.9637,5.97,5.9772,5.9828,5.9955,5.9958,6.0023,6.0001,6.0115,6.001,6.0015,5.9998,5.9992,5.9998,6.0135,6.0139,6.0141,6.0144,0,5.9544,5.9534,5.9597,5.9659,5.9711,5.9758,5.98,5.9841,5.9816,5.9871,5.9948,5.9992,6.0079,6.015,6.021,6.0226,6.018,6.0177,6.0202,6.0211,6.021,6.0208,5.9869,6.0169,6.0166,6.0164,6.0163,6.0162,5.9743,5.9813,5.9844,5.9916,5.9944,5.9984,6.0049,6.0053,6.0118,6.0185,6.0165,6.0253,6.0285,6.036,6.0384,6.0451,6.0408,6.0447,6.0455,6.0464,6.0474,6.0202,6.0462,6.0462,6.0461,6.046,6.046,0,6.0009,6.0026,6.0092,6.0151,6.0207,6.016,6.0203,6.0252,6.033,6.0364,6.042,6.0508,6.0577,6.0585,6.0649,6.0701,6.0681,6.0719,6.0713,6.0717,6.0511,6.0481,6.0733,6.0733,6.0733,6.0733,6.0733,6.0733,6.0154,6.0269,6.0262,6.039,6.0405,6.049,6.0518,6.0554,6.058,6.0681,6.0737,6.0742,6.0765,6.083,6.089,6.089,6.0915,6.096,6.0952,6.0759,6.0732,6.0706,6.0676,6.0966,6.0966,6.1151,6.1153,6.1154]},{"header":{"parameterUnit":"m.s-1","parameterCategory":1,"la1":30.2991,"la2":30.254,"lo1":-89.0895,"lo2":-89.0444,"dy":0.0017,"dx":0.0017,"nx":28,"ny":28,"refTime":"2023-08-10T21:00:00:Z","depth":0,"parameterNumber":3,"parameterNumberName":"V-component_of_WINDS"},"data":[0,0,0,0,0,0,0,0,0,0,0,0,0,0,0,0,0,0,0,0,0,0,0,0,0,0,0,0,0,0,0,0,0,0,0,0,0,0,0,0,0,0,0,0,0,0,0,0,0,0,0,0,0,0,0,0,0,0,3.9686,3.9687,0,3.9782,3.9783,3.9784,3.9773,3.9771,3.977,3.9768,3.9861,3.9865,3.9869,0,0,0,0,0,0,0,0,0,0,0,0,0,3.9485,3.9489,3.9686,3.9687,3.9688,3.9782,3.9783,3.9785,3.9773,3.9771,3.9769,3.9768,3.986,3.9865,3.9869,0,0,0,0,0,0,0,0,0,0,0,0,0,3.9576,3.949,3.9686,3.9694,3.9696,3.9782,3.9783,3.9785,3.9774,3.9771,3.9769,3.9767,3.9858,3.9864,3.987,3.9952,0,0,3.9888,3.989,0,0,0,0,0,0,0,0,3.9571,3.9583,3.9692,3.9694,3.9696,3.9763,3.9747,3.9841,3.9774,3.9744,3.9768,3.9766,3.983,3.9838,3.9861,3.9957,3.996,3.9888,3.9892,3.9894,3.9896,0,0,0,0,0,0,0,3.9564,3.9579,3.9724,3.9693,3.9696,3.9691,3.9701,3.9764,3.9798,3.9746,3.9746,3.9758,3.9831,3.9856,3.9863,3.9962,3.9888,3.9893,3.9897,3.9899,4.0126,4.0129,0,0,0,0,0,0,3.9557,3.9574,3.9721,3.9727,3.9626,3.9696,3.9708,3.9744,3.9798,3.9804,3.9759,3.9757,3.9847,3.9856,3.9866,3.9964,3.9894,3.99,3.9903,4.0124,4.0127,4.013,0,0,0,0,0,0,3.9553,3.957,3.9717,3.965,3.9668,3.9702,3.9743,3.9747,3.9772,3.9808,3.9813,3.9779,3.9845,3.9858,3.9931,3.9968,3.9903,3.9908,4.0121,4.0125,4.0128,4.0162,0,0,0,0,0,0,3.9547,3.9569,3.9602,3.9651,3.9672,3.9782,3.9745,3.975,3.9783,3.978,3.9828,3.9833,3.9844,3.9922,3.9936,3.9974,3.9912,4.0118,4.0123,4.0127,4.0158,4.0167,4.0174,0,0,0,0,0,3.954,3.9607,3.9604,3.9622,3.9715,3.9784,3.9796,3.9809,3.9786,3.9818,3.9841,3.9832,3.9961,3.993,3.9946,3.9986,4.0115,4.0121,4.0127,4.0154,4.0165,4.0174,0,0,0,0,0,0,3.956,3.9614,3.9611,3.9697,3.9736,3.9782,3.9824,3.982,3.9866,3.9861,3.9874,3.9884,3.9957,3.9979,3.9942,4.0067,4.0035,4.0044,4.005,4.0061,4.0069,4.0061,3.9917,0,0,0,0,0,3.9575,3.9629,3.9672,3.9743,3.9763,3.979,3.9821,3.9827,3.9868,3.9884,3.9912,3.995,3.9999,4.0031,4.0079,4.0161,4.017,4.0196,4.0204,4.0211,4.0218,4.0261,4.0273,4.0148,4.0148,4.0148,0,0,3.9605,3.9641,3.9674,3.9748,3.9779,3.9832,3.9804,3.9862,3.99,3.9892,3.9962,3.9984,4.0027,4.0104,4.014,4.0125,4.0255,4.0218,4.0223,4.0227,4.0268,4.028,4.029,4.0152,4.0151,4.0151,0,0,3.9688,3.9722,3.9784,3.9816,3.9864,3.9881,3.9896,3.9942,3.9957,4.0028,4.0022,4.0067,4.0152,4.0182,4.0209,4.03,4.0293,4.0315,4.0357,4.0399,4.0408,4.0417,4.0448,4.0459,4.0323,4.0323,4.0323,0,3.9719,3.9801,3.9815,3.9874,3.9905,3.9901,3.9963,3.9992,4.0053,4.0073,4.0056,4.0161,4.019,4.0273,4.0295,4.0318,4.0333,4.031,4.0406,4.0415,4.0423,4.0453,4.0464,4.0325,4.0325,4.0325,4.0324,0,3.9836,3.9892,3.9936,3.9996,4.0032,4.0092,4.0113,4.0147,4.015,4.0168,4.0239,4.0273,4.0326,4.0347,4.035,4.043,4.0419,4.0404,4.0371,4.0437,4.0465,4.0476,4.0328,4.0328,4.0327,4.0326,0,0,3.9934,4.0001,4.0016,4.0042,4.0095,4.0137,4.0195,4.0249,4.0277,4.0318,4.0365,4.0436,4.0422,4.0452,4.0459,4.0495,4.0563,4.0475,4.0477,4.0489,4.065,4.066,4.0673,4.0558,4.0561,4.0562,4.0646,0,4.002,4.0125,4.0139,4.0231,4.0281,4.0278,4.0327,4.0363,4.0381,4.0425,4.0444,4.0494,4.0473,4.049,4.0526,4.0547,4.0595,4.0541,4.06,4.0602,4.0588,4.0688,4.0699,4.0776,4.0657,4.0659,4.066,0,4.0135,4.0181,4.0278,4.0321,4.0343,4.0388,4.0437,4.048,4.0519,4.0529,4.0562,4.0563,4.062,4.0586,4.0663,4.0626,4.0651,4.0664,4.0667,4.0672,4.0634,4.0693,4.0801,4.0812,4.0677,4.0676,4.0675,0,4.0194,4.028,4.0349,4.0371,4.0424,4.0455,4.0478,4.0516,4.0547,4.0588,4.0608,4.0655,4.0681,4.0716,4.0729,4.0704,4.0805,4.0773,4.0813,4.0812,4.0833,4.0831,4.0944,4.0851,4.0851,4.0851,4.0851,0,4.0288,4.0347,4.0376,4.0418,4.0483,4.0497,4.056,4.0582,4.0615,4.0659,4.0658,4.0699,4.0714,4.0757,4.0767,4.0828,4.084,4.0848,4.0849,4.0847,4.0846,4.0862,4.0857,4.0854,4.0853,4.0853,4.0852,0,4.0366,4.0388,4.0462,4.0506,4.0518,4.0564,4.06,4.0639,4.0656,4.0712,4.0726,4.0752,4.0802,4.0819,4.0879,4.0885,4.0956,4.0954,4.0943,4.0943,4.0981,4.0977,4.1108,4.1125,4.1022,4.1023,4.1024,0,4.0424,4.0469,4.0518,4.0548,4.0573,4.0622,4.0653,4.0668,4.07,4.0747,4.078,4.083,4.0871,4.095,4.0973,4.1018,4.1016,4.1059,4.1023,4.1018,4.1014,4.1011,4.1014,4.1065,4.1066,4.1067,4.1068,0,4.0523,4.0532,4.0578,4.0628,4.0665,4.0704,4.0742,4.0767,4.0786,4.0822,4.0874,4.0906,4.0967,4.1016,4.1062,4.1082,4.1078,4.1079,4.109,4.1088,4.1079,4.1082,4.096,4.1076,4.1075,4.1074,4.1074,4.1074,4.0591,4.0631,4.0671,4.0722,4.0752,4.0787,4.0826,4.0848,4.0892,4.0944,4.095,4.1005,4.1041,4.1102,4.1125,4.1167,4.1154,4.1171,4.1175,4.1179,4.1181,4.1074,4.1175,4.1175,4.1175,4.1175,4.1175,0,4.0689,4.0715,4.0762,4.0815,4.0854,4.0849,4.0889,4.0922,4.0971,4.1006,4.1046,4.1104,4.1151,4.1177,4.1223,4.1251,4.125,4.1263,4.126,4.1264,4.119,4.1175,4.1263,4.1263,4.1263,4.1263,4.1263,4.1263,4.0745,4.0811,4.0823,4.0903,4.0927,4.0983,4.1006,4.1038,4.1065,4.1131,4.117,4.1188,4.1218,4.1266,4.1308,4.1314,4.133,4.1344,4.1349,4.1279,4.127,4.1261,4.1247,4.1348,4.1348,4.1419,4.1419,4.142]}]]